Regional Weather Roundup
Issued by NWS

Home | Current Version | Previous Version | Graphics & Text | Print | Product List | Glossary On
Versions: 1 2 3 4 5 6 7 8 9 10 11 12 13 14 15 16 17 18 19 20 21 22 23 24 25 26 27 28 29 30 31 32 33 34 35 36 37 38 39 40 41 42 43 44 45 46 47 48 49 50
000
ASUS45 KSLC 312010
RWRUT

UTAH REGIONAL WEATHER ROUNDUP
NATIONAL WEATHER SERVICE SALT LAKE CITY UT
200 PM MDT MON AUG 31 2015

UTZ001>011-023>025-312100-

NORTHERN UTAH

CITY           SKY/WX    TMP DP  RH WIND       PRES   REMARKS
BRIGHAM CITY   SUNNY     82  22  11 W5        30.06F
HILL AFB       SUNNY     81  38  21 VRB2      30.09F
LOGAN          SUNNY     80  31  16 VRB3      30.07F
OGDEN          SUNNY     83  35  18 VRB7      30.06F
PROVO AIRPORT  MOSUNNY   82  48  30 VRB7      30.06F
SALT LAKE CITY MOSUNNY   83  39  21 N9        30.05F
VERNAL         SUNNY     80  48  32 VRB7      30.10F
WENDOVER       SUNNY     81  27  13 E5        30.07F
HEBER CITY     SUNNY     82  37  20 SW18G25   30.11F
WEST JORDAN    SUNNY     82  43  24 NW10      30.08F

$$

UTZ012>022-026-027-312100-

SOUTHERN/CENTRAL UTAH

CITY           SKY/WX    TMP DP  RH WIND       PRES   REMARKS
BLANDING       MOSUNNY   81  50  33 S8        30.26F
BRYCE CANYON   PTSUNNY   72  48  42 SE15G28   30.30F
CEDAR CITY     MOSUNNY   85  40  20 S20G29    30.14F
DELTA          SUNNY     83  38  20 SW10      30.08F
HANKSVILLE     MOSUNNY   84  46  26 CALM      30.07F
MILFORD        SUNNY     90  39  16 SW16G29   30.07F
MOAB/CYNLANDS  SUNNY     85  55  35 VRB3      30.07F
PRICE          MOSUNNY   75  51  43 VRB3      30.17F
ST GEORGE      CLEAR     95  52  23 E3        29.95F HX  92
KANAB          MOSUNNY   82  55  39 CALM      30.18F

$$

REGIONAL REPORTS     COLORADO/ARIZONA

CITY           SKY/WX    TMP DP  RH WIND       PRES   REMARKS
CRAIG, CO      PTSUNNY   79  48  33 W10       30.19F
GRAND JUNCTION MOSUNNY   78  53  41 VRB3      30.13F
RIFLE          PTSUNNY   71  57  61 VRB6      30.21F
MONTROSE       MOSUNNY   77  49  37 VRB6      30.21F
CORTEZ         PTSUNNY   80  49  33 MISG      30.19F
PAGE, AZ       PTSUNNY   82  57  42 VRB3      30.09F
GRAND CANYON   CLOUDY    68  54  60 S9          N/A
KINGMAN        MOSUNNY   93  47  20 S7        30.00F
FLAGSTAFF      MOSUNNY   71  53  52 SW13      30.29F

$$

REGIONAL REPORTS    NEVADA/IDAHO/WYOMING

CITY           SKY/WX    TMP DP  RH WIND       PRES   REMARKS
LAS VEGAS, NV  MOSUNNY   99  45  15 S8        29.83F HX  95
ELY            SUNNY     83  29  14 S12G23    30.14F
ELKO           SUNNY     82  26  13 VRB5      30.07F
POCATELLO, ID  SUNNY     77  36  22 W9        30.10F
BURLEY         SUNNY     74  40  29 VRB3      30.07F
EVANSTON, WY   SUNNY     78  35  21 SW14G25   30.21F
ROCK SPRINGS   MOSUNNY   74  36  25 W10G21    30.19F
KEMMERER       SUNNY     75  25  15 SW14G26   30.23S

$$


USA.gov is the U.S. government's official web portal to all federal, state and local government web resources and services.